JAF45C EBBR-LEPA

Flight info

Callsign JAF45C
Flight time N/A
Altitude 33000
Route CIV N872 LESDO DCT KOVIN/N0460F350 DCT DUCRA UM728 RESMI UN857 DISAK DCT DIRMO DCT VALKU DCT ATSUP DCT MINSO DCT DEGOL DCT PPG DCT ALBER DCT GIR DCT NENDA DCT KUREG DCT LORES
Aircraft B738/M-SDE2E3FGHIRWXY/LB1

Departure

Time 2026-05-07 13:30
Airport Brussels Airport (EBBR)

Arrival

Time N/A
Airport Palma de Mallorca Airport (LEPA)
Time Latitude Longitude Altitude Speed Heading
2026-05-07 12:41 50.90226 4.48409 124 ft 0 kts 335°
2026-05-07 13:15 50.90224 4.48410 128 ft 2 kts 335°
2026-05-07 13:15 50.90200 4.48428 125 ft 4 kts 335°
2026-05-07 13:16 50.90175 4.48444 125 ft 4 kts 348°
2026-05-07 13:16 50.90152 4.48444 132 ft 4 kts 39°
2026-05-07 13:16 50.90146 4.48433 132 ft 2 kts 65°
2026-05-07 13:19 50.90165 4.48501 132 ft 16 kts 66°
2026-05-07 13:19 50.90218 4.48688 133 ft 22 kts 64°
2026-05-07 13:19 50.90290 4.48937 135 ft 26 kts 65°
2026-05-07 13:20 50.90363 4.49191 133 ft 25 kts 66°
2026-05-07 13:20 50.90432 4.49428 129 ft 23 kts 60°
2026-05-07 13:20 50.90573 4.49522 126 ft 22 kts 13°
2026-05-07 13:20 50.90722 4.49582 119 ft 22 kts
2026-05-07 13:21 50.90744 4.49406 114 ft 21 kts 243°
2026-05-07 13:21 50.90683 4.49202 113 ft 20 kts 250°
2026-05-07 13:21 50.90699 4.48991 112 ft 20 kts 248°
2026-05-07 13:21 50.90642 4.48795 112 ft 19 kts 245°
2026-05-07 13:22 50.90586 4.48606 113 ft 19 kts 244°
2026-05-07 13:22 50.90535 4.48421 116 ft 18 kts 247°
2026-05-07 13:22 50.90503 4.48301 119 ft 18 kts 247°
2026-05-07 13:22 50.90436 4.48072 118 ft 17 kts 244°
2026-05-07 13:23 50.90403 4.47963 117 ft 16 kts 244°
2026-05-07 13:23 50.90354 4.47804 118 ft 16 kts 243°
2026-05-07 13:23 50.90312 4.47648 116 ft 15 kts 247°
2026-05-07 13:23 50.90272 4.47498 121 ft 14 kts 247°
2026-05-07 13:24 50.90230 4.47357 122 ft 14 kts 243°
2026-05-07 13:24 50.90188 4.47223 123 ft 13 kts 247°
2026-05-07 13:24 50.90153 4.47092 125 ft 13 kts 246°
2026-05-07 13:24 50.90114 4.46958 123 ft 15 kts 245°
2026-05-07 13:25 50.90062 4.46782 121 ft 19 kts 246°
2026-05-07 13:25 50.90009 4.46595 124 ft 18 kts 246°
2026-05-07 13:25 50.89957 4.46413 121 ft 18 kts 246°
2026-05-07 13:25 50.89908 4.46238 123 ft 17 kts 245°
2026-05-07 13:26 50.89858 4.46070 125 ft 17 kts 245°
2026-05-07 13:26 50.89810 4.45909 128 ft 16 kts 244°
2026-05-07 13:26 50.89764 4.45754 133 ft 15 kts 247°
2026-05-07 13:26 50.89809 4.45674 135 ft 1 kts 345°
2026-05-07 13:27 50.89810 4.45674 135 ft 0 kts 345°
2026-05-07 13:28 50.89825 4.45669 135 ft 12 kts 350°
2026-05-07 13:28 50.89923 4.45687 134 ft 15 kts 47°
2026-05-07 13:28 50.89945 4.45760 132 ft 1 kts 67°
2026-05-07 13:29 50.89964 4.45830 127 ft 28 kts 65°
2026-05-07 13:29 50.90177 4.46556 124 ft 116 kts 65°
2026-05-07 13:29 50.90624 4.48089 126 ft 187 kts 64°
2026-05-07 13:29 50.91231 4.50130 707 ft 212 kts 65°
2026-05-07 13:30 50.91938 4.52292 1630 ft 224 kts 60°
2026-05-07 13:30 50.92648 4.54520 2685 ft 234 kts 65°
2026-05-07 13:30 50.93320 4.57022 3274 ft 253 kts 67°
2026-05-07 13:30 50.94011 4.59606 4052 ft 261 kts 67°
2026-05-07 13:31 50.94522 4.62364 4971 ft 263 kts 81°
2026-05-07 13:31 50.94729 4.65270 5798 ft 268 kts 84°
2026-05-07 13:31 50.94901 4.68244 6611 ft 273 kts 84°
2026-05-07 13:31 50.95092 4.71261 7398 ft 277 kts 84°
2026-05-07 13:32 50.95264 4.74324 8201 ft 281 kts 92°
2026-05-07 13:32 50.94787 4.77315 8949 ft 283 kts 121°
2026-05-07 13:32 50.93472 4.79602 9793 ft 283 kts 147°
2026-05-07 13:32 50.91693 4.80983 10443 ft 291 kts 159°
2026-05-07 13:33 50.89695 4.81989 10634 ft 314 kts 175°
2026-05-07 13:33 50.87468 4.81618 10823 ft 335 kts 200°
2026-05-07 13:33 50.85465 4.79590 10982 ft 356 kts 227°
2026-05-07 13:33 50.84140 4.76258 11314 ft 370 kts 245°
2026-05-07 13:34 50.83098 4.72497 11909 ft 376 kts 247°
2026-05-07 13:34 50.81070 4.64822 13359 ft 381 kts 247°
2026-05-07 13:34 50.80019 4.60955 14013 ft 385 kts 246°
2026-05-07 13:35 50.78937 4.57067 14627 ft 388 kts 246°
2026-05-07 13:35 50.77828 4.53150 15249 ft 391 kts 246°
2026-05-07 13:35 50.76704 4.49224 15862 ft 394 kts 246°
2026-05-07 13:35 50.75564 4.45273 16455 ft 397 kts 245°
2026-05-07 13:36 50.74412 4.41295 17048 ft 400 kts 245°
2026-05-07 13:36 50.73251 4.37295 17634 ft 403 kts 245°
2026-05-07 13:36 50.72076 4.33252 18209 ft 406 kts 245°
2026-05-07 13:36 50.70890 4.29181 18714 ft 409 kts 245°
2026-05-07 13:37 50.69696 4.25085 19214 ft 412 kts 245°
2026-05-07 13:37 50.68511 4.21030 19705 ft 414 kts 245°
2026-05-07 13:37 50.67301 4.16894 20181 ft 417 kts 245°
2026-05-07 13:37 50.66066 4.12678 20675 ft 419 kts 245°
2026-05-07 13:38 50.64855 4.08551 21121 ft 422 kts 245°
2026-05-07 13:38 50.63600 4.04283 21570 ft 425 kts 245°
2026-05-07 13:38 50.62352 4.00046 22015 ft 428 kts 245°
2026-05-07 13:38 50.61096 3.95784 22452 ft 430 kts 245°
2026-05-07 13:39 50.59846 3.91556 22877 ft 433 kts 245°
2026-05-07 13:39 50.58529 3.87282 23293 ft 436 kts 239°
2026-05-07 13:39 50.56614 3.83579 23663 ft 440 kts 223°
2026-05-07 13:39 50.54095 3.80846 24022 ft 443 kts 207°
2026-05-07 13:40 50.51275 3.78884 24403 ft 444 kts 204°
2026-05-07 13:40 50.48412 3.77019 24723 ft 447 kts 203°
2026-05-07 13:40 50.45532 3.75145 25015 ft 449 kts 204°
2026-05-07 13:40 50.42644 3.73231 25333 ft 451 kts 204°
2026-05-07 13:41 50.39754 3.71281 25661 ft 453 kts 204°
2026-05-07 13:41 50.36862 3.69314 25975 ft 455 kts 205°
2026-05-07 13:41 50.33955 3.67338 26274 ft 456 kts 205°
2026-05-07 13:41 50.31032 3.65356 26567 ft 458 kts 205°
2026-05-07 13:42 50.28100 3.63373 26855 ft 460 kts 204°
2026-05-07 13:42 50.25160 3.61387 27159 ft 461 kts 204°
2026-05-07 13:42 50.22211 3.59398 27575 ft 460 kts 204°
2026-05-07 13:42 50.19308 3.57442 28038 ft 457 kts 205°
2026-05-07 13:43 50.16395 3.55485 28498 ft 455 kts 205°
2026-05-07 13:43 50.13488 3.53538 28890 ft 455 kts 205°
2026-05-07 13:43 50.10577 3.51591 29252 ft 455 kts 205°
2026-05-07 13:43 50.07681 3.49656 29643 ft 454 kts 205°
2026-05-07 13:44 50.04773 3.47715 30081 ft 452 kts 205°
2026-05-07 13:44 50.01889 3.45793 30451 ft 451 kts 205°
2026-05-07 13:44 49.99007 3.43874 30770 ft 450 kts 205°
2026-05-07 13:44 49.96128 3.41959 31074 ft 450 kts 205°
2026-05-07 13:45 49.93254 3.40048 31404 ft 449 kts 205°
2026-05-07 13:45 49.90378 3.38140 31740 ft 448 kts 205°
2026-05-07 13:45 49.87520 3.36246 32072 ft 446 kts 205°
2026-05-07 13:45 49.84663 3.34354 32367 ft 446 kts 205°
2026-05-07 13:46 49.81810 3.32468 32666 ft 445 kts 205°
2026-05-07 13:46 49.78956 3.30584 32984 ft 444 kts 205°
2026-05-07 13:46 49.76106 3.28699 33051 ft 448 kts 205°
2026-05-07 13:47 49.70367 3.24904 33051 ft 448 kts 205°
2026-05-07 13:47 49.64665 3.21145 33062 ft 443 kts 205°
2026-05-07 13:48 49.58999 3.17418 33067 ft 442 kts 205°
2026-05-07 13:48 49.53347 3.13708 33056 ft 441 kts 205°
2026-05-07 13:49 49.47758 3.09840 33060 ft 439 kts 212°
2026-05-07 13:49 49.42652 3.04698 33059 ft 439 kts 216°
2026-05-07 13:50 49.37581 2.99458 33060 ft 440 kts 216°
2026-05-07 13:50 49.32471 2.94245 33051 ft 441 kts 215°
2026-05-07 13:51 49.27337 2.89057 33055 ft 443 kts 215°
2026-05-07 13:51 49.22182 2.83869 33051 ft 444 kts 215°
2026-05-07 13:52 49.17014 2.78681 33055 ft 445 kts 215°
2026-05-07 13:52 49.11841 2.73499 33048 ft 445 kts 215°
2026-05-07 13:53 49.06703 2.68363 33050 ft 444 kts 215°
2026-05-07 13:53 49.01501 2.63176 33045 ft 444 kts 214°
2026-05-07 13:54 48.96368 2.58072 33047 ft 443 kts 214°
2026-05-07 13:54 48.91206 2.52951 33044 ft 443 kts 214°
2026-05-07 13:55 48.86040 2.47835 33047 ft 442 kts 214°
2026-05-07 13:55 48.80889 2.42745 33049 ft 441 kts 214°
2026-05-07 13:56 48.75742 2.37671 33051 ft 441 kts 214°
2026-05-07 13:56 48.70629 2.32644 33050 ft 441 kts 214°
2026-05-07 13:57 48.65485 2.27596 33042 ft 441 kts 214°
2026-05-07 13:57 48.60340 2.22561 33052 ft 441 kts 214°
2026-05-07 13:58 48.54828 2.18491 33041 ft 444 kts 199°
2026-05-07 13:58 48.48779 2.16470 33036 ft 446 kts 193°
2026-05-07 13:59 48.42699 2.14611 33034 ft 446 kts 194°
2026-05-07 13:59 48.36638 2.12678 33038 ft 445 kts 194°
2026-05-07 14:00 48.30568 2.10766 33030 ft 446 kts 191°
2026-05-07 14:00 48.24351 2.10669 33029 ft 452 kts 174°
2026-05-07 14:01 48.18133 2.12154 33031 ft 452 kts 174°
2026-05-07 14:01 48.11906 2.13410 33036 ft 450 kts 179°
2026-05-07 14:02 48.05655 2.13816 33042 ft 450 kts 181°
2026-05-07 14:02 47.99396 2.14073 33048 ft 450 kts 181°
2026-05-07 14:03 47.93136 2.14382 33048 ft 450 kts 180°
2026-05-07 14:03 47.86882 2.14734 33049 ft 450 kts 180°
2026-05-07 14:04 47.80618 2.15100 33039 ft 450 kts 180°
2026-05-07 14:04 47.74347 2.15465 33041 ft 450 kts 180°
2026-05-07 14:05 47.68090 2.15827 33040 ft 450 kts 180°
2026-05-07 14:05 47.61829 2.16187 33029 ft 450 kts 180°
2026-05-07 14:06 47.55575 2.16546 33028 ft 450 kts 180°
2026-05-07 14:06 47.50383 2.16844 33023 ft 450 kts 180°
2026-05-07 14:07 47.44127 2.17201 33036 ft 449 kts 180°
2026-05-07 14:07 47.37877 2.17558 33020 ft 449 kts 180°
2026-05-07 14:08 47.31632 2.17913 33028 ft 449 kts 180°
2026-05-07 14:08 47.25387 2.18268 33018 ft 449 kts 180°
2026-05-07 14:09 47.19138 2.18622 33026 ft 449 kts 181°
2026-05-07 14:09 47.12893 2.18975 33026 ft 449 kts 181°
2026-05-07 14:10 47.06684 2.20380 33017 ft 456 kts 165°
2026-05-07 14:10 47.00758 2.23804 33009 ft 458 kts 161°
2026-05-07 14:11 46.94880 2.27339 33009 ft 458 kts 161°
2026-05-07 14:11 46.88966 2.30832 33018 ft 458 kts 161°
2026-05-07 14:12 46.83040 2.34284 33013 ft 458 kts 162°
2026-05-07 14:12 46.77110 2.37719 33010 ft 458 kts 162°
2026-05-07 14:13 46.71190 2.41139 33014 ft 458 kts 162°
2026-05-07 14:13 46.65263 2.44557 33010 ft 458 kts 162°
2026-05-07 14:14 46.59339 2.47967 33011 ft 458 kts 162°
2026-05-07 14:14 46.53402 2.51376 33005 ft 459 kts 162°
2026-05-07 14:15 46.47465 2.54776 33011 ft 459 kts 162°
2026-05-07 14:15 46.41522 2.58173 33011 ft 459 kts 162°
2026-05-07 14:16 46.35619 2.61539 33007 ft 459 kts 162°
2026-05-07 14:16 46.29662 2.64927 33006 ft 460 kts 162°
2026-05-07 14:17 46.23705 2.68308 33006 ft 460 kts 162°
2026-05-07 14:17 46.17748 2.71681 33008 ft 460 kts 162°
2026-05-07 14:18 46.11796 2.75044 33005 ft 460 kts 163°
2026-05-07 14:18 46.05838 2.78403 33001 ft 459 kts 163°
2026-05-07 14:19 45.99881 2.81753 33010 ft 459 kts 163°
2026-05-07 14:19 45.93908 2.84969 33003 ft 458 kts 164°
2026-05-07 14:20 45.87929 2.88105 32995 ft 458 kts 164°
2026-05-07 14:20 45.81952 2.91259 33005 ft 457 kts 164°
2026-05-07 14:21 45.75993 2.94295 32985 ft 454 kts 169°
2026-05-07 14:21 45.69814 2.95345 32994 ft 444 kts 185°
2026-05-07 14:22 45.63643 2.95102 33000 ft 443 kts 185°
2026-05-07 14:22 45.57480 2.94863 32991 ft 443 kts 185°
2026-05-07 14:23 45.51324 2.94673 32988 ft 442 kts 185°
2026-05-07 14:23 45.45170 2.94505 32994 ft 442 kts 184°
2026-05-07 14:24 45.39020 2.94342 32988 ft 442 kts 184°
2026-05-07 14:24 45.32872 2.94178 32992 ft 441 kts 184°
2026-05-07 14:25 45.26760 2.94015 32997 ft 441 kts 184°
2026-05-07 14:25 45.20626 2.93851 32996 ft 441 kts 184°
2026-05-07 14:26 45.14482 2.93687 32980 ft 441 kts 184°
2026-05-07 14:26 45.08354 2.93524 32988 ft 440 kts 184°
2026-05-07 14:27 45.02229 2.93361 32987 ft 440 kts 184°
2026-05-07 14:27 44.96105 2.93199 32988 ft 439 kts 184°
2026-05-07 14:28 44.89993 2.93037 32986 ft 439 kts 184°
2026-05-07 14:28 44.83884 2.92870 32981 ft 439 kts 185°
2026-05-07 14:29 44.77793 2.92472 32987 ft 438 kts 186°
2026-05-07 14:29 44.71708 2.91977 32981 ft 438 kts 186°
2026-05-07 14:30 44.65625 2.91502 32988 ft 438 kts 186°
2026-05-07 14:30 44.59536 2.91050 32993 ft 438 kts 186°
2026-05-07 14:31 44.53453 2.90608 32988 ft 438 kts 186°
2026-05-07 14:31 44.47362 2.90167 32976 ft 438 kts 186°
2026-05-07 14:32 44.41316 2.89729 32989 ft 437 kts 186°
2026-05-07 14:32 44.35195 2.89287 32983 ft 437 kts 186°
2026-05-07 14:33 44.29160 2.88851 32981 ft 437 kts 186°
2026-05-07 14:33 44.23073 2.88413 32982 ft 437 kts 186°
2026-05-07 14:34 44.17001 2.87976 32976 ft 437 kts 186°
2026-05-07 14:34 44.10932 2.87540 32980 ft 436 kts 186°
2026-05-07 14:35 44.04872 2.87111 32978 ft 436 kts 186°
2026-05-07 14:35 43.98817 2.86676 32974 ft 436 kts 186°
2026-05-07 14:36 43.92752 2.86241 32964 ft 436 kts 186°
2026-05-07 14:36 43.86702 2.85811 32966 ft 435 kts 186°
2026-05-07 14:37 43.80650 2.85381 32969 ft 435 kts 186°
2026-05-07 14:37 43.71571 2.85198 32970 ft 435 kts 182°
2026-05-07 14:38 43.65516 2.85342 32976 ft 435 kts 182°
2026-05-07 14:38 43.59460 2.85468 32968 ft 435 kts 183°
2026-05-07 14:39 43.53419 2.85566 32974 ft 434 kts 183°
2026-05-07 14:39 43.47383 2.85654 32980 ft 433 kts 183°
2026-05-07 14:40 43.41356 2.85741 32969 ft 433 kts 184°
2026-05-07 14:40 43.35332 2.85829 32970 ft 433 kts 184°
2026-05-07 14:41 43.29307 2.85916 32977 ft 432 kts 184°
2026-05-07 14:41 43.23332 2.86003 32967 ft 432 kts 184°
2026-05-07 14:42 43.17324 2.86090 32973 ft 431 kts 184°
2026-05-07 14:42 43.11328 2.86177 32966 ft 431 kts 184°
2026-05-07 14:43 43.05334 2.86264 32972 ft 430 kts 184°
2026-05-07 14:43 42.99356 2.86350 32968 ft 429 kts 184°
2026-05-07 14:44 42.93390 2.86436 32972 ft 428 kts 185°
2026-05-07 14:44 42.87438 2.86522 32969 ft 427 kts 185°
2026-05-07 14:45 42.81515 2.86607 32975 ft 425 kts 185°
2026-05-07 14:45 42.75618 2.86690 32967 ft 422 kts 186°
2026-05-07 14:46 42.69815 2.86147 32972 ft 416 kts 190°
2026-05-07 14:46 42.64055 2.85428 32969 ft 415 kts 191°
2026-05-07 14:47 42.58323 2.84738 32976 ft 413 kts 190°
2026-05-07 14:47 42.52596 2.84066 32973 ft 412 kts 191°
2026-05-07 14:48 42.46889 2.83398 32978 ft 411 kts 191°
2026-05-07 14:48 42.41210 2.82738 32982 ft 409 kts 191°
2026-05-07 14:49 42.35551 2.82083 32984 ft 408 kts 191°
2026-05-07 14:49 42.29905 2.81430 32980 ft 407 kts 191°
2026-05-07 14:50 42.24317 2.80785 32981 ft 405 kts 191°
2026-05-07 14:50 42.18710 2.80139 32972 ft 404 kts 191°
2026-05-07 14:51 42.13118 2.79496 32967 ft 402 kts 191°
2026-05-07 14:51 42.07547 2.78855 32963 ft 402 kts 191°
2026-05-07 14:52 42.02927 2.78325 32963 ft 401 kts 191°
2026-05-07 14:52 41.97357 2.77687 32963 ft 401 kts 191°
2026-05-07 14:53 41.91803 2.77064 32965 ft 401 kts 190°
2026-05-07 14:53 41.86239 2.76587 32970 ft 401 kts 189°
2026-05-07 14:54 41.80658 2.76136 32969 ft 401 kts 189°
2026-05-07 14:54 41.75084 2.75668 32967 ft 401 kts 189°
2026-05-07 14:55 41.69526 2.75198 32901 ft 395 kts 189°
2026-05-07 14:55 41.66801 2.74987 32312 ft 392 kts 188°
2026-05-07 14:55 41.64064 2.74848 31480 ft 396 kts 187°
2026-05-07 14:56 41.61272 2.74740 30471 ft 405 kts 187°
2026-05-07 14:56 41.58475 2.74646 30308 ft 402 kts 187°
2026-05-07 14:56 41.55652 2.74546 30198 ft 411 kts 187°
2026-05-07 14:56 41.52765 2.74437 30083 ft 419 kts 187°
2026-05-07 14:57 41.46883 2.74206 29978 ft 423 kts 187°
2026-05-07 14:57 41.41036 2.73976 29963 ft 419 kts 187°
2026-05-07 14:58 41.35219 2.73740 29968 ft 418 kts 187°
2026-05-07 14:58 41.29414 2.73502 29968 ft 417 kts 187°
2026-05-07 14:59 41.23619 2.73266 29969 ft 416 kts 186°
2026-05-07 14:59 41.17830 2.73030 29970 ft 416 kts 186°
2026-05-07 15:00 41.12043 2.72795 29966 ft 416 kts 186°
2026-05-07 15:00 41.06252 2.72560 29964 ft 416 kts 186°
2026-05-07 15:01 41.00468 2.72326 29964 ft 416 kts 186°
2026-05-07 15:01 40.94681 2.72093 29961 ft 416 kts 186°
2026-05-07 15:02 40.88900 2.71860 29962 ft 416 kts 186°
2026-05-07 15:02 40.83115 2.71627 29962 ft 416 kts 186°
2026-05-07 15:03 40.77332 2.71394 29961 ft 416 kts 186°
2026-05-07 15:03 40.71547 2.71162 29961 ft 416 kts 186°
2026-05-07 15:04 40.65762 2.70930 29954 ft 416 kts 186°
2026-05-07 15:04 40.59981 2.70699 29954 ft 415 kts 186°
2026-05-07 15:05 40.54201 2.70468 29955 ft 415 kts 186°
2026-05-07 15:05 40.48442 2.71451 29947 ft 430 kts 165°
2026-05-07 15:06 40.43112 2.75115 29951 ft 438 kts 157°